星链-11148 [DTC] (STARLINK-11148 [DTC] )

导读 | 豆包AI

STARLINK-11148是美国太空探索技术公司(SpaceX)星链互联网星座的一员,于2024年6月8日发射入轨。星链计划旨在构建全球卫星互联网通信网络,为全球提供低延迟宽带互联网服务,该卫星的入轨进一步扩充了星链星座的覆盖能力与服务容量。

基本信息
目录编号:
60044
目录名称:
STARLINK-11148
国际标识:
2024-112G
轨道中心:
EARTH
卫星名称:
星链-11148 [DTC]
卫星全名:
星链-11148 [DTC] (STARLINK-11148 [DTC] )
卫星状态:
在轨 (已飞行716 天)
发射日期:
2024-06-08 UTC
国别 :
美国 (US)
星等 :
--
轨道信息
数据来源 国际轨道数据
星历时间: 2026-05-24T08:37:58+0800
1天前
查看轨道信息
半长轴: 6737.867km
偏心率: 0.0000346
轨道倾角: 53.161°
近地点辐角 59.881°
升交点赤经 254.876°
平近点角 300.224°
近地点: 359.496km
远地点: 359.964km
周期: 91.737分钟
每日圈数: 15.697089
详细信息
固有亮度:
5
最大亮度:
0.3
卫星平台:
Starlink v2.0 mini
覆盖范围:
全球
运营商:
太空探索技术公司
运营商所在国:
美国
制造商(研发单位):
太空探索技术公司
制造商所在国:
美国
使用方式:
暂无
卫星简介
星链(Starlink)计划是由太空探索技术公司(SpaceX)提出的一个巨型低轨卫星互联网星座项目,计划在2019年至2024年间在太空搭建由约1.2万颗卫星组成的“星链”网络,其中1584颗将部署在地球上空550千米处的近地轨道,并从2020年开始工作。该卫星仍在工作。
2D轨道图
3D轨道图
轨道高度分析图
轨道倾角分析图
轨道综合分析图
查看轨道综合分析图